Regional Weather Roundup
Issued by NWS Wakefield, VA

Home | Current Version | Previous Version | Graphics & Text | Print | Product List | Glossary On
Versions: 1 2 3 4 5 6 7 8 9 10 11 12 13 14 15 16 17 18 19 20 21 22 23 24 25 26 27 28 29 30 31 32 33 34 35 36 37 38 39 40 41 42 43 44 45 46 47 48 49 50
000
ASUS41 KAKQ 271314
RWRAKQ

REGIONAL WEATHER ROUNDUP
NATIONAL WEATHER SERVICE WAKEFIELD VA
900 AM EDT THU AUG 27 2015

Note: "fair" indicates few or no clouds below 12,000 feet with no
significant weather and/or obstructions to visibility. * = Denotes
station may not report precipitation (e.g., rain,snow,etc.),
thunder or fog.

VAZ042-051-052>054-056-271400-
NORTHERN VIRGINIA

CITY           SKY/WX    TMP DP  RH WIND       PRES   REMARKS
WASH NATIONAL  PTSUNNY   71  57  61 N8        30.13R
DULLES         PTSUNNY   68  55  63 NW8       30.14R
FORT BELVOIR   SUNNY     70  57  62 VRB6      30.12S
QUANTICO       PTSUNNY   69  55  60 VRB5      30.13S
FREDERICKSBRG* SUNNY     70  57  63 N6        30.12S
STAFFORD*      SUNNY     68  56  65 NW8       30.17R
WARRENTON      MOSUNNY   69  60  72 NW3       30.13S
CULPEPER*      MOSUNNY   65  58  78 N6        30.14S
MANASSAS*      NOT AVBL
LEESBURG*      MOSUNNY   68  59  73 CALM      30.15S
WINCHESTER     CLOUDY    64  55  72 CALM      30.16R
FRONT ROYAL*   CLOUDY    64  57  77 CALM      30.15S
LURAY*         FAIR      63  55  77 CALM      30.17R
$$

VAZ048-049-060>072-079>083-271400-
CENTRAL AND SOUTH CENTRAL VIRGINIA

CITY           SKY/WX    TMP DP  RH WIND       PRES   REMARKS
RICHMOND       CLOUDY    68  57  68 N9        30.12R
CHESTERFIELD*  FAIR      68  48  49 N5        30.13R
PETERSBURG*    PTSUNNY   68  62  82 N7        30.12R
HANOVER        MOSUNNY   67  58  72 VRB3      30.14R
TAPPAHANNOCK*  MOSUNNY   67  60  79 CALM      30.12S
QUINTON*       PTSUNNY   65  60  83 N5        30.11R
CHARLOTTSVILLE SUNNY     66  56  70 NE6       30.14R
GORDONSVILLE*  FAIR      67  57  70 NE5       30.14R
ORANGE*        SUNNY     68  59  73 NW3       30.15S
LOUISA*        SUNNY     70  57  64 NE8       30.13R
BUMPASS*       FAIR      67  57  68 CALM      30.13R
FARMVILLE*     MOSUNNY   67  61  82 NE5       30.12R
CREWE*         FAIR     N/A N/A N/A N3        30.12R
FORT PICKETT*  FAIR      65  57  76 N7        30.12R
CHASE CITY*    FAIR      67  60  77 NE5       30.12R
CLARKSVILLE*   FAIR      64  57  77 CALM      30.11R
SOUTH HILL*    CLOUDY    64  58  80 N6        30.16S
LAWRENCEVILLE* CLOUDY    66  59  77 N3        30.10S
EMPORIA*       CLOUDY    66  59  77 NW6       30.10S
$$

VAZ088>098-271400-
SOUTHEAST VIRGINIA

CITY           SKY/WX    TMP DP  RH WIND       PRES   REMARKS
NORFOLK        CLOUDY    75  61  61 NE12      30.07S
VIRGINIA BEACH CLOUDY    78  60  53 NE12      30.06S
NORFOLK NAVAL  PTSUNNY   75  59  57 NE13      30.09R
WEST POINT*    CLOUDY    71  61  72 CALM      30.13R
SALUDA*        PTSUNNY   72  61  70 NW8       30.10R
NEWPORT NEWS   PTSUNNY   77  61  57 NE9       30.09R
LANGLEY AFB    PTSUNNY   75  58  56 E15       30.08R
FORT EUSTIS    PTSUNNY   77  61  58 NE7       30.08R
WILLIAMSBURG*  CLOUDY    75  66  73 CALM      30.11R
HR EXEC AP*      N/A     73  61  64 NE8       30.10S
FRANKLIN*      CLOUDY    72  63  74 NE7       30.08F
WAKEFIELD      CLOUDY    71  62  73 VRB3      30.09R
$$

VAZ020-022-025-037-045-271400-
WEST CENTRAL AND SOUTHWEST VIRGINIA

CITY           SKY/WX    TMP DP  RH WIND       PRES   REMARKS
STAUNTON*      MOSUNNY   65  55  70 CALM      30.19S
WAYNESBORO*    FAIR      64  54  71 CALM      30.18R
HOT SPRINGS VA MOSUNNY   58  49  72 NE5       30.22R
LYNCHBURG      MOSUNNY   68  58  70 N8        30.14S
DANVILLE       CLOUDY    68  57  68 NE8       30.13R
SOUTH BOSTON*  FAIR      66  58  74 NE6       30.12R
MARTINSVILLE   MOSUNNY   68  58  70 CALM      30.17R
ROANOKE        CLOUDY    65  54  67 N6        30.17S
BLACKSBURG     CLOUDY    61  57  87 CALM      30.21S
DUBLIN*        CLOUDY    61  56  84 CALM      30.19S
MARION*        PTSUNNY   62  55  77 E3        30.21S
HILLSVILLE*    CLOUDY    58  53  84 CALM      30.18R
RICHLANDS*     FAIR      58  55  88 CALM      30.19S
WISE*          SUNNY     59  59 100 E5        30.20S
ABINGDON*      MOSUNNY   64  52  65 E7        30.16S
$$

MDZ021>025-VAZ099-100-271400-
SOUTHERN MARYLAND AND THE DELMARVA PENINSULA

CITY           SKY/WX    TMP DP  RH WIND       PRES   REMARKS
PATUXENT RIVER PTSUNNY   70  58  65 N12       30.11R
BAY BRIDGE APT   N/A     70  55  60 N8        30.11S
LEONARDTOWN    MOSUNNY   68  55  64 CALM      30.13R
DOVER          SUNNY     68  60  75 NW10      30.08R
GEORGETOWN     MOSUNNY   66  57  72 N5        30.11R
EASTON         MOSUNNY   70  61  73 N6        30.15R
CAMBRIDGE      SUNNY     72  59  64 N8        30.10S
SALISBURY      PTSUNNY   66  60  81 N5        30.10R
OCEAN CITY     PTSUNNY   70  58  65 NW8       30.09R
WALLOPS ISLAND CLOUDY    70  58  65 N10       30.10R
ACCOMACK*      PTSUNNY   66  57  72 N5        30.10R
$$

NCZ012>017-030>032-271400-
NORTH CENTRAL AND EASTERN NORTH CAROLINA

CITY           SKY/WX    TMP DP  RH WIND       PRES   REMARKS
ROANOKE RAPIDS FAIR      70  61  73 NE7       30.09R
RALEIGH        PTSUNNY   69  59  70 NE7       30.09R
ELIZABETH CITY CLOUDY    76  65  68 NE10      30.05F
AHOSKIE*       CLOUDY    71  62  71 N8        30.08R
EDENTON*       CLOUDY    72  63  73 NE6       30.05S
CURRITUCK*     CLOUDY    77  60  55 NE9G21    30.06S
KILL DEVIL HLS CLOUDY    77  65  66 NE9G17    30.02S
MANTEO         CLOUDY    76  66  71 NE15G21   30.03S
CAPE HATTERAS  CLOUDY    75  73  93 E6        30.00S
TARBORO*       CLOUDY    73  62  69 NE6       30.08R
GOLDSBORO      CLOUDY    71  66  85 NE10      30.04R
WASHINGTON     LGT RAIN  70  65  85 N8        30.04S
GREENVILLE     CLOUDY    70  64  83 NE9       30.07R
NEW BERN       CLOUDY    74  70  87 W7        30.04R THUNDER
WILMINGTON     CLOUDY    73  71  93 NE6       29.99S
$$

VAZ048-271400-
ELSEWHERE

CITY           SKY/WX    TMP DP  RH WIND       PRES   REMARKS
HARRISBURG PA  SUNNY     68  56  65 W8        30.12R
BALTIMORE      MOSUNNY   69  56  62 NW7       30.12R
ANNAPOLIS      SUNNY     70  57  63 NW8       30.11R
ANDREWS AFB    SUNNY     70  55  58 NW12      30.11S
PHILADELPHIA   MOSUNNY   71  54  54 N13       30.10R
HENDERSON NC   PTSUNNY   65  57  73 N5        30.10S
GREENSBORO     PTSUNNY   68  56  65 NE12      30.11R
ROCKY MOUNT    CLOUDY    74  60  61 NE7       30.07R
$$

VAZ100-271400-
MARINE

STATION/POSITION TIME  TEMP    WIND        PRES    WAVE   SWELL
                       AIR SEA DIR/SP/G            HT/PER HT/PER
                 (UTC) (F)     (DEG/KT/KT) (MB)    (FT/S) (FT/S)
BRANDYWINE LGT   1200   69 74   10/ 14/ 17 1018.8R
CAPE MAY NJ      1200   71 78  350/  1/  4 1018.2R
LEWES DE         1200   69 74  320/ 11/ 12 1018.5R
15NM E FENWICK I 1250   72 78  340/ 14/ 17 1018.6R   3/10   2/10
OCEAN-CITY-INLET 1200   69 77  360/  8/  9 1017.7R
WACHAPREAGUE VA  1200   69 78   20/  5/  7 1018.8R
GOOSES REEF MD   1300   70 79  360/ 12/ 14 1020.6R
COVE POINT MD    1200   70     360/ 13/ 16 1019.8R
SOLOMONS ISLAND  1200      81                N/A
BISHOPS HEAD MD  1200   69 74   10/  7/  9 1018.0R
POTOMAC MD       1300   72 80  360/  8/ 10 1018.5R   1/ 2
CAMBRIDGE MD     1200   69 80   10/  9/ 11 1018.2R
LEWISETTA VA     1200   71 79   10/  7/ 11 1018.8R
RAPPAHANNOCK LGT 1200           30/ 16/ 19 1019.0R
STINGRAY PT      1300   75 80   40/ 14/ 17 1019.4R   2/ 3
YORK RVR RNG VA  1200   75      50/ 16/ 18 1018.0R
YORKTOWN VA      1200   72 80   30/  6/  7 1018.2R
JAMESTOWN VA     1300   72 82   30/  6/ 10   N/A
DOMINION TERM VA 1200   74      60/ 10/ 13 1018.3R
KIPTOPEKE VA     1200      79   60/  4/  9   N/A
CHES BAY BRIDGE  1200   75 79   20/ 15/ 18 1017.8R
CAPE HENRY VA    1200   75      50/ 19/ 21   N/A
CHESAPEAKE LGHT  1200   75      50/ 19/ 20 1018.5R
WILLOUBY STN VA  1200   74      50/ 15/ 17 1019.2R
CAPE HENRY BUOY  1228      79                N/A     4/10   2/11
1ST LANDING BUOY 1300      78              1018.1R   3/ 3
CAPE CHARLES BUO 1226      79                N/A     4/ 5   2/10
OFFSHORE WE BUOY 1211      78                N/A     5/ 5   3/10
64NM E OF VA BCH 1250   77 80   40/ 17/ 19 1016.7S   5/ 5   2/10
DUCK PIER NC     1200   78 79   40/ 20/ 23 1016.5R
44100 DUCK FRF   1224      79                N/A     5/ 5   2/11
44056 DUCK FRF   1211      79                N/A     5/ 5   2/12
OREGON INLET NC  1200   76 79   40/ 13/ 16 1016.9R
HATTERAS NC      1200   78 82   40/ 10/ 16 1015.3R
DIAMOND SHLS NC  1250   81 82   80/ 12/ 14 1015.2F   4/11   3/11
CAPE LOOKOUT NC  1300   76      20/ 11/ 14 1015.6R
$$


USA.gov is the U.S. government's official web portal to all federal, state and local government web resources and services.